[[{"header":{"parameterUnit":"m.s-1","parameterCategory":1,"la1":30.2991,"la2":30.254,"lo1":-89.0895,"lo2":-89.0444,"dy":0.0017,"dx":0.0017,"nx":28,"ny":28,"refTime":"2025-08-07T21:00:00:Z","depth":0,"parameterNumber":2,"parameterNumberName":"U-component_of_WINDS"},"data":[0,0,0,0,0,0,0,0,0,0,0,0,0,0,0,0,0,0,0,0,0,0,0,0,0,0,0,0,0,0,0,0,0,0,0,0,0,0,0,0,0,0,0,0,0,0,0,0,0,0,0,0,0,0,0,0,0,0,-3.8128,-3.813,0,-3.8316,-3.8318,-3.832,-3.8309,-3.8306,-3.8303,-3.8301,-3.8496,-3.8504,-3.8512,0,0,0,0,0,0,0,0,0,0,0,0,0,-3.7762,-3.7768,-3.8128,-3.813,-3.8132,-3.8316,-3.8318,-3.8321,-3.8309,-3.8306,-3.8303,-3.83,-3.8494,-3.8503,-3.8512,0,0,0,0,0,0,0,0,0,0,0,0,0,-3.7932,-3.7771,-3.8127,-3.8149,-3.8152,-3.8315,-3.8318,-3.8322,-3.831,-3.8306,-3.8302,-3.8298,-3.8491,-3.8502,-3.8514,-3.8668,0,0,-3.8549,-3.8554,0,0,0,0,0,0,0,0,-3.7923,-3.7946,-3.8143,-3.8147,-3.8152,-3.8285,-3.8261,-3.8438,-3.8311,-3.825,-3.8301,-3.8296,-3.8429,-3.8446,-3.849,-3.8677,-3.8686,-3.855,-3.8557,-3.8562,-3.8566,0,0,0,0,0,0,0,-3.7911,-3.7938,-3.8202,-3.8146,-3.8152,-3.815,-3.817,-3.8294,-3.8361,-3.8255,-3.8255,-3.8277,-3.8431,-3.8479,-3.8495,-3.8689,-3.855,-3.856,-3.8567,-3.8572,-3.9012,-3.9016,0,0,0,0,0,0,-3.7894,-3.7928,-3.8196,-3.8208,-3.8025,-3.816,-3.8182,-3.8246,-3.8359,-3.8373,-3.8281,-3.8276,-3.8461,-3.8481,-3.8502,-3.8689,-3.8562,-3.8573,-3.858,-3.9007,-3.9013,-3.9018,0,0,0,0,0,0,-3.7886,-3.7918,-3.8189,-3.8068,-3.8102,-3.8171,-3.8243,-3.8252,-3.83,-3.8378,-3.8391,-3.8317,-3.8459,-3.8485,-3.8627,-3.8696,-3.8578,-3.8589,-3.9002,-3.9009,-3.9016,-3.9066,0,0,0,0,0,0,-3.7875,-3.7915,-3.7974,-3.8069,-3.8109,-3.8309,-3.8247,-3.8259,-3.832,-3.8316,-3.8416,-3.8429,-3.8458,-3.8609,-3.8638,-3.871,-3.8598,-3.8996,-3.9005,-3.9013,-3.9059,-3.9074,-3.9087,0,0,0,0,0,-3.7862,-3.7981,-3.7977,-3.8009,-3.8183,-3.8313,-3.8336,-3.8366,-3.8326,-3.8385,-3.8436,-3.8425,-3.8684,-3.8624,-3.8656,-3.8733,-3.8992,-3.9002,-3.9013,-3.9052,-3.9071,-3.9087,0,0,0,0,0,0,-3.7892,-3.7994,-3.799,-3.8143,-3.822,-3.8311,-3.8387,-3.8385,-3.8476,-3.8468,-3.8503,-3.8526,-3.8667,-3.8715,-3.8645,-3.8888,-3.8833,-3.885,-3.8852,-3.887,-3.8884,-3.8869,-3.8608,0,0,0,0,0,-3.7917,-3.8013,-3.8097,-3.8224,-3.8262,-3.8319,-3.8376,-3.8393,-3.8474,-3.8507,-3.8568,-3.8648,-3.8747,-3.8812,-3.8907,-3.9066,-3.9088,-3.9135,-3.9149,-3.9161,-3.9175,-3.9262,-3.9284,-3.9053,-3.9053,-3.9052,0,0,-3.7968,-3.8035,-3.8094,-3.8232,-3.8293,-3.8393,-3.8346,-3.8453,-3.8528,-3.8524,-3.866,-3.8708,-3.88,-3.895,-3.902,-3.8994,-3.9244,-3.9174,-3.9183,-3.9191,-3.9275,-3.9297,-3.9316,-3.906,-3.9059,-3.9058,0,0,-3.8111,-3.8173,-3.8284,-3.8347,-3.844,-3.8477,-3.8504,-3.8597,-3.8628,-3.8765,-3.8764,-3.8854,-3.9025,-3.909,-3.9145,-3.9316,-3.9309,-3.9346,-3.9421,-3.9505,-3.9523,-3.954,-3.96,-3.9621,-3.9361,-3.9361,-3.9361,0,-3.8163,-3.8312,-3.8342,-3.8451,-3.8511,-3.8512,-3.8626,-3.8685,-3.8806,-3.8848,-3.8818,-3.9032,-3.9094,-3.9259,-3.9301,-3.9346,-3.9378,-3.9334,-3.9518,-3.9535,-3.9551,-3.9608,-3.9631,-3.9365,-3.9364,-3.9364,-3.9363,0,-3.8371,-3.8475,-3.8555,-3.8669,-3.874,-3.885,-3.8898,-3.8966,-3.8977,-3.9017,-3.9158,-3.9232,-3.9343,-3.9384,-3.9397,-3.9552,-3.9533,-3.9511,-3.9455,-3.9576,-3.963,-3.9653,-3.937,-3.9369,-3.9367,-3.9367,0,0,-3.8537,-3.8668,-3.8696,-3.8748,-3.8852,-3.8933,-3.9045,-3.9153,-3.9209,-3.9293,-3.9387,-3.9532,-3.9512,-3.9575,-3.9596,-3.967,-3.9799,-3.9639,-3.9641,-3.9665,-3.9975,-3.9989,-4.0014,-3.9797,-3.9801,-3.9805,-3.9966,0,-3.869,-3.8886,-3.8917,-3.9089,-3.9185,-3.9188,-3.9285,-3.936,-3.9401,-3.949,-3.9536,-3.9638,-3.9604,-3.9642,-3.9716,-3.9768,-3.9862,-3.9757,-3.9885,-3.9889,-3.9859,-4.0043,-4.0059,-4.0208,-3.9988,-3.9992,-3.9994,0,-3.8894,-3.8982,-3.9164,-3.9254,-3.9296,-3.9383,-3.9484,-3.9569,-3.9654,-3.9679,-3.975,-3.9762,-3.9878,-3.9819,-3.9981,-3.9909,-3.9964,-3.9997,-4.0004,-4.0015,-3.9947,-4.0058,-4.0257,-4.0278,-4.0028,-4.0026,-4.0023,0,-3.8995,-3.9159,-3.9289,-3.9334,-3.9443,-3.9504,-3.9553,-3.9634,-3.9697,-3.9786,-3.9828,-3.993,-3.9986,-4.0065,-4.0104,-4.0058,-4.0263,-4.0208,-4.0287,-4.0286,-4.0328,-4.0325,-4.0537,-4.0367,-4.0366,-4.0366,-4.0365,0,-3.9161,-3.9272,-3.9335,-3.9415,-3.954,-3.9575,-3.9698,-3.9745,-3.9818,-3.9908,-3.9918,-4.0002,-4.0049,-4.0141,-4.0173,-4.0302,-4.0328,-4.0351,-4.0358,-4.0349,-4.0346,-4.0384,-4.0374,-4.0372,-4.0371,-4.0369,-4.0368,0,-3.9294,-3.9341,-3.9482,-3.9575,-3.9601,-3.9688,-3.9768,-3.9846,-3.9887,-4.0001,-4.003,-4.0095,-4.0203,-4.0251,-4.0385,-4.0407,-4.0553,-4.0554,-4.0524,-4.0526,-4.0602,-4.0593,-4.0844,-4.0878,-4.0687,-4.0689,-4.069,0,-3.9396,-3.9481,-3.9582,-3.9642,-3.9693,-3.979,-3.9854,-3.9893,-3.996,-4.0064,-4.013,-4.0238,-4.0327,-4.05,-4.056,-4.0663,-4.0665,-4.0746,-4.0681,-4.0669,-4.0665,-4.0658,-4.0667,-4.0757,-4.0759,-4.0761,-4.0762,0,-3.9572,-3.9591,-3.9682,-3.9782,-3.9858,-3.9939,-4.0018,-4.0067,-4.0119,-4.0194,-4.0304,-4.0373,-4.0509,-4.0617,-4.0724,-4.0775,-4.0778,-4.0782,-4.0806,-4.0797,-4.0775,-4.0787,-4.0554,-4.0776,-4.0774,-4.0773,-4.0773,-4.0772,-3.9691,-3.9767,-3.985,-3.9951,-4.0015,-4.0089,-4.0166,-4.0218,-4.031,-4.0423,-4.0442,-4.056,-4.0644,-4.0788,-4.0844,-4.0937,-4.0917,-4.0952,-4.096,-4.0968,-4.0971,-4.0762,-4.0957,-4.0957,-4.0956,-4.0956,-4.0956,0,-3.9866,-3.992,-4.0013,-4.0123,-4.0203,-4.0198,-4.0286,-4.0353,-4.0456,-4.0535,-4.0622,-4.0749,-4.0854,-4.0923,-4.1029,-4.1091,-4.1095,-4.1117,-4.1112,-4.1124,-4.0984,-4.0952,-4.1113,-4.1112,-4.1112,-4.1112,-4.1112,-4.1112,-3.9966,-4.0094,-4.0123,-4.0282,-4.0336,-4.045,-4.0501,-4.057,-4.0632,-4.0773,-4.086,-4.0904,-4.0979,-4.1091,-4.1188,-4.1205,-4.1243,-4.1267,-4.1284,-4.1151,-4.1134,-4.1118,-4.1089,-4.1275,-4.1276,-4.1416,-4.1417,-4.1418]},{"header":{"parameterUnit":"m.s-1","parameterCategory":1,"la1":30.2991,"la2":30.254,"lo1":-89.0895,"lo2":-89.0444,"dy":0.0017,"dx":0.0017,"nx":28,"ny":28,"refTime":"2025-08-07T21:00:00:Z","depth":0,"parameterNumber":3,"parameterNumberName":"V-component_of_WINDS"},"data":[0,0,0,0,0,0,0,0,0,0,0,0,0,0,0,0,0,0,0,0,0,0,0,0,0,0,0,0,0,0,0,0,0,0,0,0,0,0,0,0,0,0,0,0,0,0,0,0,0,0,0,0,0,0,0,0,0,0,2.197,2.1971,0,2.2082,2.2083,2.2084,2.2141,2.2142,2.2142,2.2142,2.2252,2.2255,2.2258,0,0,0,0,0,0,0,0,0,0,0,0,0,2.1802,2.1805,2.197,2.1971,2.1973,2.2081,2.2083,2.2084,2.2141,2.2142,2.2142,2.2142,2.2251,2.2254,2.2258,0,0,0,0,0,0,0,0,0,0,0,0,0,2.189,2.1806,2.197,2.2014,2.2019,2.2081,2.2083,2.2085,2.2141,2.2142,2.2142,2.2142,2.225,2.2254,2.2258,2.2283,0,0,2.2272,2.2273,0,0,0,0,0,0,0,0,2.1885,2.1896,2.2006,2.2011,2.2017,2.2098,2.2064,2.2151,2.2141,2.2095,2.2142,2.2142,2.22,2.2209,2.2229,2.2288,2.2293,2.2272,2.2275,2.2276,2.2278,0,0,0,0,0,0,0,2.1879,2.1892,2.2014,2.2008,2.2014,2.2027,2.204,2.2081,2.2146,2.2099,2.2103,2.2116,2.2203,2.2225,2.2232,2.2295,2.2272,2.2276,2.2278,2.228,2.2378,2.2378,0,0,0,0,0,0,2.1866,2.1886,2.201,2.2017,2.195,2.203,2.2045,2.2072,2.2145,2.2157,2.2116,2.2118,2.2218,2.2227,2.2236,2.227,2.2276,2.228,2.2283,2.2378,2.2378,2.2378,0,0,0,0,0,0,2.1862,2.1877,2.2006,2.1953,2.1971,2.2033,2.2063,2.2074,2.2096,2.2158,2.217,2.2127,2.2218,2.223,2.2271,2.2275,2.2282,2.2286,2.2378,2.2378,2.2378,2.2337,0,0,0,0,0,0,2.1857,2.1875,2.1886,2.1953,2.1973,2.204,2.2063,2.2076,2.2104,2.2108,2.2171,2.2182,2.2219,2.2264,2.2275,2.2281,2.229,2.2378,2.2378,2.2378,2.2338,2.2336,2.2333,0,0,0,0,0,2.1851,2.1869,2.1886,2.1901,2.1988,2.204,2.2051,2.2095,2.2104,2.2115,2.2154,2.218,2.2272,2.2268,2.2281,2.2288,2.2378,2.2378,2.2378,2.2339,2.2336,2.2333,0,0,0,0,0,0,2.18,2.1879,2.1899,2.1939,2.1983,2.205,2.2065,2.209,2.2131,2.2134,2.2185,2.2199,2.2234,2.2265,2.2259,2.2315,2.2328,2.233,2.2294,2.2291,2.2289,2.228,2.2293,0,0,0,0,0,2.1793,2.183,2.1896,2.1926,2.1947,2.2002,2.2026,2.2056,2.2102,2.2121,2.2164,2.2207,2.2246,2.227,2.2309,2.2343,2.2357,2.2354,2.2351,2.2349,2.235,2.237,2.2369,2.2378,2.2378,2.2378,0,0,2.178,2.1828,2.1848,2.1917,2.1954,2.1989,2.2017,2.2053,2.208,2.2126,2.2167,2.22,2.2251,2.2289,2.2307,2.2315,2.2351,2.2349,2.2346,2.2349,2.237,2.2369,2.2368,2.2379,2.2379,2.2379,0,0,2.1775,2.1814,2.1843,2.188,2.1936,2.1973,2.1979,2.2043,2.2067,2.2109,2.2145,2.2176,2.2242,2.2277,2.2303,2.231,2.2334,2.2321,2.2308,2.2326,2.2325,2.2325,2.2327,2.2327,2.2322,2.2322,2.2322,0,2.1751,2.1807,2.1854,2.1889,2.1918,2.1962,2.1991,2.2024,2.2089,2.2108,2.2116,2.22,2.2237,2.2283,2.2285,2.2305,2.2313,2.2314,2.2322,2.2322,2.2322,2.2325,2.2325,2.232,2.2321,2.2321,2.2321,0,2.1775,2.1813,2.1829,2.1893,2.1923,2.1954,2.2005,2.203,2.2057,2.2092,2.2135,2.2181,2.2231,2.2244,2.227,2.2293,2.2296,2.2312,2.2326,2.2319,2.2322,2.2323,2.2317,2.2318,2.2319,2.2319,0,0,2.1741,2.183,2.1835,2.1864,2.1929,2.1959,2.1991,2.2041,2.2061,2.2104,2.2132,2.2187,2.2202,2.2232,2.2262,2.2279,2.228,2.2293,2.2295,2.2289,2.2308,2.2295,2.2295,2.2297,2.2297,2.2297,2.2303,0,2.1744,2.1806,2.185,2.1894,2.193,2.1972,2.2,2.2042,2.2076,2.2109,2.2146,2.2184,2.2201,2.222,2.2237,2.2276,2.2285,2.2276,2.2322,2.2323,2.2308,2.2297,2.2284,2.2288,2.2305,2.2305,2.2305,0,2.1757,2.18,2.1848,2.1909,2.1925,2.195,2.1999,2.2031,2.2079,2.2102,2.2135,2.2166,2.2201,2.2212,2.226,2.2253,2.2274,2.2296,2.2297,2.2303,2.2314,2.2303,2.229,2.229,2.2308,2.2308,2.2307,0,2.1726,2.1796,2.1834,2.1858,2.193,2.1946,2.1977,2.2025,2.2052,2.2093,2.2111,2.2155,2.218,2.2213,2.2255,2.2259,2.2298,2.2313,2.2318,2.2316,2.2324,2.2323,2.2314,2.2338,2.2338,2.2338,2.2338,0,2.1726,2.1754,2.1822,2.1845,2.1877,2.1926,2.1956,2.199,2.2032,2.2062,2.2101,2.2127,2.2181,2.2214,2.2247,2.2282,2.2292,2.2311,2.2319,2.2308,2.2305,2.2322,2.2323,2.2338,2.2338,2.2338,2.2338,0,2.1697,2.1744,2.1789,2.1853,2.187,2.1891,2.1945,2.1969,2.2004,2.2041,2.2053,2.2107,2.2148,2.2193,2.2249,2.2271,2.2303,2.2315,2.2287,2.2292,2.2295,2.2294,2.2296,2.2299,2.232,2.232,2.232,0,2.1694,2.1717,2.1784,2.1807,2.1837,2.1873,2.1901,2.1949,2.1976,2.2032,2.2049,2.2092,2.213,2.2193,2.2237,2.2279,2.2293,2.2291,2.2299,2.2286,2.2292,2.229,2.2293,2.2288,2.2288,2.2287,2.2287,0,2.1683,2.1705,2.1744,2.1791,2.1823,2.1861,2.1902,2.1918,2.1974,2.2002,2.2045,2.2074,2.2131,2.2174,2.2222,2.2251,2.2278,2.2284,2.2287,2.2275,2.2258,2.2267,2.228,2.2284,2.2284,2.2284,2.2284,2.2284,2.1667,2.1689,2.1739,2.1781,2.1817,2.1853,2.1879,2.1917,2.1954,2.2005,2.2031,2.2073,2.2119,2.2187,2.2216,2.2248,2.2257,2.2262,2.2263,2.2264,2.226,2.2253,2.2257,2.2257,2.2258,2.2258,2.2258,0,2.1657,2.1692,2.173,2.1785,2.1818,2.1841,2.1887,2.1912,2.1949,2.1991,2.2027,2.2076,2.2117,2.2165,2.2209,2.2226,2.2239,2.2236,2.2235,2.2241,2.225,2.2243,2.2224,2.2224,2.2224,2.2224,2.2224,2.2224,2.1656,2.1694,2.1722,2.1778,2.1812,2.1855,2.1878,2.1912,2.1946,2.1998,2.2034,2.2064,2.2108,2.2156,2.2194,2.2207,2.2221,2.2214,2.223,2.2238,2.2241,2.2243,2.2237,2.2217,2.2217,2.2219,2.2219,2.2218]}]]